Regional Weather Roundup
Issued by NWS Albany, NY

Home | Current Version | Previous Version | Text Only | Print | Product List | Glossary On
Versions: 1 2 3 4 5 6 7 8 9 10 11 12 13 14 15 16 17 18 19 20 21 22 23 24 25 26 27 28 29 30 31 32 33 34 35 36 37 38 39 40 41 42 43 44 45 46 47 48 49 50
000
ASUS41 KALY 011710
RWRALY

NEW YORK STATE HOURLY WEATHER ROUNDUP
NATIONAL WEATHER SERVICE ALBANY NY
100 PM EDT WED JUL 01 2015

NOTE: "FAIR" INDICATES FEW OR NO CLOUDS BELOW 12,000 FEET WITH NO
SIGNIFICANT WEATHER AND/OR NO OBSTRUCTIONS TO VISIBILITY.

NYZ032-033-038>043-046>054-057>066-NYZ062>081-011800-
EAST


CITY           SKY/WX    TMP DP  RH WIND       PRES   REMARKS
ALBANY         PTSUNNY   76  66  71 S9        29.71F
GLENS FALLS    LGT RAIN  69  65  86 S10       29.69F
POUGHKEEPSIE   PTSUNNY   78  63  59 SW12      29.76S
NEWBURGH       PTSUNNY   75  66  73 MISG      29.79S
MONTGOMERY     MOSUNNY   78  63  59 SW15      29.77S
WHITE PLAINS   MOSUNNY   78  62  57 W10G17    29.78F
ISLIP          MOSUNNY   78  66  66 SW14G23   29.78F
NEW YORK CITY  PTSUNNY   79  62  56 SW13G18   29.78F
CENTRAL PARK   MOSUNNY   78  61  55 MISG      29.82S
$$

NYZ005>009-017-018-044>046-055-056-011800-
CENTRAL


CITY           SKY/WX    TMP DP  RH WIND       PRES   REMARKS
FULTON         TSTM      64  61  90 NW12      29.72R FOG
SYRACUSE       CLOUDY    69  65  86 S13       29.70F
ROME           PTSUNNY   72  64  76 NW12      29.71F
ELMIRA         LGT RAIN  73  61  65 W15G25    29.76R
BINGHAMTON     CLOUDY    69  61  75 SW8       29.77F
MONTICELLO     CLOUDY    70  61  73 SW7       29.82S
$$

NYZ026>034-041>043-011800-
NORTH


CITY           SKY/WX    TMP DP  RH WIND       PRES   REMARKS
WATERTOWN      CLOUDY    63  61  93 SW9       29.69S FOG
FORT DRUM      NOT AVBL
MASSENA        LGT RAIN  67  64  90 SW12      29.63F
SARANAC LAKE   CLOUDY    63  61  93 SW8       29.68R
PLATTSBURGH    CLOUDY    66  65  96 S6        29.63F
$$

NYZ001>004-010>016-019>021-011800-
WEST


CITY           SKY/WX    TMP DP  RH WIND       PRES   REMARKS
NIAGARA FALLS  PTSUNNY   70  58  65 NW15      29.79R
BUFFALO        LGT RAIN  65  59  81 SW17      29.80R
DUNKIRK        CLOUDY    66  60  81 SW14      29.85R
JAMESTOWN      CLOUDY    61  54  77 W14       29.89R
WELLSVILLE     PTSUNNY   66  59  78 W12G23    29.86R
ROCHESTER      CLOUDY    70  60  70 W21G30    29.76R
PENN YAN       LGT RAIN  70  62  76 W12G25    29.76R
$$

             KEY
       WCI = WIND CHILL INDEX
       VSB = VISIBILITY
       HX  = HEAT INDEX
$$



USA.gov is the U.S. government's official web portal to all federal, state and local government web resources and services.